Regional Weather Roundup
Issued by NWS

Home | Current Version | Previous Version | Graphics & Text | Print | Product List | Glossary On
Versions: 1 2 3 4 5 6 7 8 9 10 11 12 13 14 15 16 17 18 19 20 21 22 23 24 25 26 27 28 29 30 31 32 33 34 35 36 37 38 39 40 41 42 43 44 45 46 47 48 49 50
171
ASUS44 KJAN 180710
RWRMS

MISSISSIPPI HOURLY WEATHER ROUNDUP
NATIONAL WEATHER SERVICE JACKSON MS
200 AM CDT THU SEP 18 2014

NOTE: "FAIR: INDICATES FEW OR NO CLOUDS BELOW 12,000 FEET WITH NO
SIGNIFICANT WEATHER AND/OR OBSTRUCTIONS TO VISIBILITY.

MSZ001>002-007>008-010>013-018>021-025>028-034>036-180800-
NORTHWEST MISSISSIPPI

CITY           SKY/WX    TMP DP  RH WIND       PRES   REMARKS
CLARKSDALE       N/A     68  68 100 CALM      29.93S
CLEVELAND      FAIR      74  70  86 SE7       29.91F
GREENWOOD      MOCLDY    73  67  81 CALM      29.92R
GREENVILLE     CLOUDY    75  68  78 SE9       29.90F
GRENADA        FAIR      72  64  78 E5        29.94S
OLIVE BRANCH   CLEAR     64  64 100 CALM      29.94S
OXFORD         FAIR      68  64  88 SE5       29.95F
TUNICA         PTSUNNY   66  64  94 CALM      29.94R FOG
$$

MSZ003>006-009-014>017-022>024-029>033-037>039-180800-
NORTHEAST MISSISSIPPI

CITY           SKY/WX    TMP DP  RH WIND       PRES   REMARKS
COLUMBUS AFB   PTCLDY    66  65  98 N2        29.95R
CORINTH          N/A     63  59  88 CALM      29.94F
GOLDN TRIANGLE PTCLDY    66  63  88 CALM      29.95S
STARKVILLE     FAIR      64  63  94 CALM      29.94S
TUPELO         MOCLDY    68  65  90 CALM      29.94F
$$

MSZ040-058-180800-
CENTRAL MISSISSIPPI

CITY           SKY/WX    TMP DP  RH WIND       PRES   REMARKS
JACKSON INTL   CLOUDY    73  70  90 CALM      29.92S
JACKSON HAWKNS CLOUDY    78  70  76 CALM      29.93S
MERIDIAN KEY   PTCLDY    72  67  84 CALM      29.93F
MERIDIAN NAS   CLEAR     69  65  86 CALM      29.93F
RAYMOND        FAIR      72  66  83 E3        29.92S
VICKSBURG      MOCLDY    72  69  90 CALM      29.90F
$$

MSZ059>079-180800-
SOUTH MISSISSIPPI

CITY           SKY/WX    TMP DP  RH WIND       PRES   REMARKS
BROOKHAVEN     FAIR      72  72 100 CALM      29.94F
COLUMBIA       FAIR      70  70 100 CALM      29.91S
HATTIESBURG    CLOUDY    74  72  93 CALM      29.92S
MCCOMB         PTCLDY    73  71  93 CALM      29.92F FOG
NATCHEZ        PTCLDY    72  70  94 CALM      29.92R
PINE BELT      CLOUDY   N/A N/A N/A CALM      29.93F
$$

MSZ080>082-180800-
COASTAL MISSISSIPPI

CITY           SKY/WX    TMP DP  RH WIND       PRES   REMARKS
BILOXI         CLOUDY    77  73  86 VRB1      29.91S
PASCAGOULA     CLOUDY    72  71  97 CALM      29.90F
GULFPORT       MOCLDY    74  72  93 CALM      29.90S
$$



USA.gov is the U.S. government's official web portal to all federal, state and local government web resources and services.